Home   Weather   41°07'N, 16°24'E   Past weeks
Flag for Italy

Past Weather in 41°07'N, 16°24'E, Italy — Yesterday and Last 2 Weeks

Now
75 °F

Clear.


Feels Like: 77 °F
Forecast: 82 / 68 °F
Wind: 5 mph from Northwest

Location: Bari / Palese Macchie

Current Time: Jun 16, 2019 at 4:51:36 am

Latest Report: Jun 16, 2019 at 3:50 am


Visibility: 10 mi

Pressure: 29.86 "Hg

Humidity: 65%

Dew Point: 63 °F

Location of 41°07'N, 16°24'ELocation

Past Weather in 41°07'N, 16°24'E — Graph

°F

41°07'N, 16°24'E Temperature Yesterday

Maximum temperature yesterday: 93 °F (at 10:20 am)
Minimum temperature yesterday: 66 °F (at 5:50 am)
Average temperature yesterday: 83 °F

High & Low Weather Summary for the Past Weeks

 TemperatureHumidityPressure
High97 °F (Jun 12, 2:20 pm)100% (Jun 2, 6:20 am)30.15 "Hg (Jun 2, 6:20 am)
Low54 °F (Jun 2, 5:20 am)21% (Jun 8, 4:20 pm)29.77 "Hg (Jun 11, 6:20 pm)
Average75 °F61%29.96 "Hg
* Reported Jun 1 3:20 am — Jun 16 3:20 am, 41°07'N, 16°24'E. Weather by CustomWeather, © 2019

Note: Actual official high and low records may vary slightly from our data, if they occured in-between our weather recording intervals... More about our weather records

Advertising

41°07'N, 16°24'E Weather History for the Previous 24 Hours

Scroll right to see more
 ConditionsComfort  
Time TempWeatherWind HumidityBarometerVisibility
3:20 am
Sun, Jun 16
77 °FClear.7 mph65%29.89 "Hg10 mi
2:50 am77 °FClear.8 mph65%29.89 "Hg10 mi
2:20 am75 °FClear.7 mph65%29.89 "Hg10 mi
1:50 am75 °FClear.6 mph61%29.89 "Hg10 mi
1:20 am77 °FClear.7 mph57%29.89 "Hg10 mi
12:50 am81 °FClear.9 mph51%29.89 "Hg10 mi
12:20 am82 °FClear.9 mph48%29.89 "Hg10 mi
11:50 pm
Sat, Jun 15
82 °FClear.8 mph55%29.86 "Hg10 mi
11:20 pm82 °FClear.7 mph55%29.86 "Hg10 mi
10:50 pm84 °FClear.9 mph48%29.86 "Hg10 mi
10:20 pm81 °FClear.5 mph51%29.86 "Hg10 mi
9:50 pm79 °FClear.2 mph58%29.86 "Hg10 mi
9:20 pm81 °FClear.1 mph58%29.86 "Hg10 mi
8:50 pm82 °FClear.2 mph55%29.86 "Hg10 mi
8:20 pm84 °FSunny.1 mph55%29.83 "Hg10 mi
7:50 pm88 °FSunny.5 mph40%29.83 "Hg10 mi
7:20 pm90 °FSunny.5 mph38%29.83 "Hg10 mi
6:50 pm93 °FSunny.3 mph28%29.86 "Hg10 mi
6:20 pm93 °FSunny.2 mph28%29.86 "Hg10 mi
5:50 pm93 °FPassing clouds.3 mph30%29.86 "HgN/A
5:20 pm90 °FPassing clouds.6 mph33%29.86 "HgN/A
4:50 pm91 °FSunny.8 mph32%29.89 "Hg10 mi
4:20 pm90 °FPassing clouds.8 mph33%29.89 "HgN/A
3:50 pm91 °FPassing clouds.7 mph34%29.89 "HgN/A
3:20 pm90 °FPassing clouds.7 mph36%29.92 "HgN/A
2:50 pm88 °FPassing clouds.7 mph38%29.92 "HgN/A
2:20 pm86 °FSunny.10 mph49%29.92 "Hg10 mi
1:50 pm91 °FPassing clouds.9 mph38%29.92 "HgN/A
1:20 pm90 °FSunny.8 mph36%29.92 "Hg10 mi
12:50 pm90 °FPassing clouds.3 mph36%29.92 "HgN/A
12:20 pm90 °FPassing clouds.6 mph33%29.92 "HgN/A
11:50 am91 °FPassing clouds.8 mph32%29.92 "HgN/A
11:20 am91 °FPassing clouds.8 mph34%29.92 "HgN/A
10:50 am93 °FPassing clouds.7 mph34%29.92 "HgN/A
10:20 am93 °FPassing clouds.6 mph32%29.95 "HgN/A
9:50 am91 °FSunny.2 mph34%29.95 "Hg10 mi
9:20 am88 °FSunny.2 mph38%29.92 "Hg10 mi
8:50 am86 °FSunny.2 mph40%29.95 "Hg10 mi
8:20 am82 °FPassing clouds.5 mph48%29.95 "HgN/A
7:50 am81 °FSunny.5 mph51%29.95 "Hg10 mi
7:20 am75 °FSunny.6 mph54%29.95 "Hg10 mi
6:50 am72 °FSunny.6 mph61%29.95 "Hg10 mi
6:20 am68 °FSunny.7 mph64%29.95 "Hg10 mi
5:50 am66 °FSunny.6 mph64%29.95 "Hg10 mi
4:50 am68 °FClear.7 mph60%29.95 "Hg10 mi
4:20 am68 °FClear.6 mph60%29.95 "Hg10 mi
Weather by CustomWeather, © 2019

See weather overview